Date String (YYYY-MM-DD hh:mm:ss) UTC,Instrument flags,Ambient pressure (hPa),Sample flow (lpm),Bypass flow (lpm),Sample temperature (°C),Ambient temperature (°C),ASC tube jacket temperature (°C),LED temperature (°C),Box temperature (°C),Sample RH (%),Span deviation,Mass concentration (μg/m³),Mass concentration (μg/m³),Mass concentration (μg/m³)
DateTimeUTC,F1_M11,P_M11,Q1_M11,Q2_M11,T1_M11,T2_M11,T3_M11,T4_M11,T5_M11,U1_M11,ZSPAN_M11,X0_M11,X2_M11,X1_M11
2022-04-08 04:00:00,,0834.1,5.00,0.00,25.6,24.3,00.0,34.7,27.2,06.1,0000.0,0008.01,0002.64,0001.26
2022-04-08 04:01:00,,0834.1,5.00,0.00,25.6,24.3,00.0,34.7,27.2,06.1,0000.0,0008.24,0002.72,0001.28
2022-04-08 04:02:00,,0834.1,5.00,0.00,25.5,24.3,00.0,34.7,27.2,06.2,0000.0,0009.58,0002.77,0001.30
2022-04-08 04:03:00,,0834.1,5.00,0.00,25.5,24.4,00.0,34.6,27.2,06.2,0000.0,0011.38,0002.78,0001.31
2022-04-08 04:04:00,,0834.1,4.99,0.00,25.5,24.5,00.0,34.6,27.2,06.2,0000.0,0012.75,0002.79,0001.34
2022-04-08 04:05:00,,0834.1,5.00,0.00,25.6,24.6,00.0,34.6,27.3,06.2,0000.0,0012.73,0002.80,0001.35
2022-04-08 04:06:00,,0834.1,5.00,0.00,25.6,24.6,00.0,34.6,27.3,06.2,0000.0,0012.30,0002.83,0001.35
2022-04-08 04:07:00,,0834.1,5.00,0.00,25.6,24.7,00.0,34.6,27.3,06.2,0000.0,0012.31,0002.83,0001.34
2022-04-08 04:08:00,,0834.1,4.99,0.00,25.6,24.7,00.0,34.6,27.4,06.2,0000.0,0012.75,0002.79,0001.32
2022-04-08 04:09:00,,0834.1,5.00,0.00,25.6,24.7,00.0,34.6,27.3,06.2,0000.0,0012.46,0002.75,0001.33
2022-04-08 04:10:00,,0834.1,5.00,0.00,25.6,24.7,00.0,34.6,27.3,06.2,0000.0,0011.89,0002.71,0001.33
2022-04-08 04:11:00,,0834.1,5.00,0.00,25.6,24.7,00.0,34.6,27.3,06.2,0000.0,0011.78,0002.72,0001.33
2022-04-08 04:12:00,,0834.1,5.00,0.00,25.6,24.7,00.0,34.6,27.3,06.2,0000.0,0012.72,0002.76,0001.33
2022-04-08 04:13:00,,0834.1,4.99,0.00,25.6,24.7,00.0,34.6,27.3,06.2,0000.0,0012.47,0002.74,0001.32
2022-04-08 04:14:00,,0834.1,5.00,0.00,25.6,24.7,00.0,34.6,27.3,06.2,0000.0,0011.08,0002.74,0001.31
2022-04-08 04:15:00,,0834.1,5.00,0.00,25.6,24.7,00.0,34.5,27.3,06.3,0000.0,0009.60,0002.73,0001.30
2022-04-08 04:16:00,,0834.1,5.00,0.00,25.6,24.7,00.0,34.5,27.3,06.3,0000.0,0009.72,0002.71,0001.28
2022-04-08 04:17:00,,0834.1,5.00,0.00,25.5,24.6,00.0,34.5,27.3,06.3,0000.0,0009.60,0002.64,0001.29
2022-04-08 04:18:00,,0834.2,5.00,0.00,25.5,24.6,00.0,34.5,27.2,06.3,0000.0,0009.40,0002.54,0001.29
2022-04-08 04:19:00,,0834.2,5.00,0.00,25.5,24.5,00.0,34.5,27.2,06.3,0000.0,0009.01,0002.56,0001.30
2022-04-08 04:20:00,,0834.3,4.99,0.00,25.5,24.5,00.0,34.5,27.1,06.3,0000.0,0009.36,0002.59,0001.28
2022-04-08 04:21:00,,0834.2,5.00,0.00,25.4,24.5,00.0,34.5,27.1,06.3,0000.0,0009.89,0002.60,0001.26
2022-04-08 04:22:00,,0834.2,5.01,0.00,25.4,24.4,00.0,34.5,27.1,06.3,0000.0,0009.88,0002.59,0001.26
2022-04-08 04:23:00,,0834.1,5.00,0.00,25.4,24.4,00.0,34.5,27.0,06.3,0000.0,0009.15,0002.65,0001.25
2022-04-08 04:24:00,,0834.2,5.00,0.00,25.4,24.4,00.0,34.4,27.1,06.3,0000.0,0008.44,0002.67,0001.25
2022-04-08 04:25:00,,0834.2,5.00,0.00,25.4,24.4,00.0,34.4,27.1,06.3,0000.0,0008.16,0002.63,0001.25
2022-04-08 04:26:00,,0834.2,5.00,0.00,25.3,24.4,00.0,34.4,27.0,06.3,0000.0,0008.12,0002.68,0001.25
2022-04-08 04:27:00,,0834.2,5.00,0.00,25.3,24.4,00.0,34.4,27.0,06.4,0000.0,0008.28,0002.76,0001.26
2022-04-08 04:28:00,,0834.2,5.01,0.00,25.3,24.4,00.0,34.4,27.0,06.4,0000.0,0008.98,0002.78,0001.25
2022-04-08 04:29:00,,0834.2,4.99,0.00,25.3,24.4,00.0,34.4,27.0,06.4,0000.0,0009.18,0002.82,0001.25
2022-04-08 04:30:00,,0834.3,5.00,0.00,25.3,24.4,00.0,34.4,27.0,06.4,0000.0,0009.42,0002.83,0001.24
2022-04-08 04:31:00,,0834.2,5.00,0.00,25.3,24.4,00.0,34.4,27.1,06.4,0000.0,0008.97,0002.77,0001.25
2022-04-08 04:32:00,,0834.3,5.00,0.00,25.3,24.4,00.0,34.4,27.1,06.4,0000.0,0008.49,0002.74,0001.24
2022-04-08 04:33:00,,0834.2,5.00,0.00,25.3,24.4,00.0,34.3,27.0,06.4,0000.0,0008.85,0002.73,0001.23
2022-04-08 04:34:00,,0834.2,5.00,0.00,25.3,24.4,00.0,34.3,27.0,06.4,0000.0,0009.12,0002.63,0001.23
2022-04-08 04:35:00,,0834.2,5.00,0.00,25.3,24.4,00.0,34.3,27.1,06.4,0000.0,0008.93,0002.56,0001.22
2022-04-08 04:36:00,,0834.2,5.00,0.00,25.3,24.4,00.0,34.3,27.1,06.4,0000.0,0009.06,0002.57,0001.22
2022-04-08 04:37:00,,0834.3,5.00,0.00,25.3,24.4,00.0,34.3,27.0,06.4,0000.0,0009.10,0002.53,0001.22
2022-04-08 04:38:00,,0834.4,5.00,0.00,25.3,24.4,00.0,34.3,27.0,06.4,0000.0,0008.70,0002.50,0001.21
2022-04-08 04:39:00,,0834.4,5.00,0.00,25.3,24.4,00.0,34.3,27.1,06.4,0000.0,0008.15,0002.48,0001.21
2022-04-08 04:40:00,,0834.3,5.00,0.00,25.3,24.4,00.0,34.3,27.1,06.4,0000.0,0008.26,0002.51,0001.22
2022-04-08 04:41:00,,0834.4,5.00,0.00,25.3,24.5,00.0,34.3,27.1,06.4,0000.0,0008.12,0002.54,0001.21
2022-04-08 04:42:00,,0834.4,5.00,0.00,25.3,24.4,00.0,34.3,27.1,06.4,0000.0,0008.17,0002.59,0001.22
2022-04-08 04:43:00,,0834.4,5.00,0.00,25.3,24.4,00.0,34.3,27.0,06.4,0000.0,0008.21,0002.65,0001.24
2022-04-08 04:44:00,,0834.4,5.00,0.00,25.3,24.4,00.0,34.3,27.0,06.4,0000.0,0008.16,0002.65,0001.25
2022-04-08 04:45:00,,0834.4,5.00,0.00,25.3,24.4,00.0,34.3,27.0,06.4,0000.0,0007.36,0002.68,0001.25
2022-04-08 04:46:00,,0834.4,5.01,0.00,25.3,24.4,00.0,34.3,27.0,06.4,0000.0,0007.60,0002.72,0001.26
2022-04-08 04:47:00,,0834.4,4.99,0.00,25.3,24.4,00.0,34.3,27.1,06.4,0000.0,0008.32,0002.75,0001.26
2022-04-08 04:48:00,,0834.4,5.00,0.00,25.3,24.4,00.0,34.3,27.1,06.4,0000.0,0007.88,0002.70,0001.26
2022-04-08 04:49:00,,0834.5,5.00,0.00,25.3,24.4,00.0,34.3,27.0,06.4,0000.0,0008.67,0002.67,0001.26
2022-04-08 04:50:00,,0834.5,5.00,0.00,25.3,24.4,00.0,34.3,27.0,06.4,0000.0,0009.13,0002.68,0001.25
2022-04-08 04:51:00,,0834.5,4.99,0.00,25.3,24.4,00.0,34.3,27.0,06.5,0000.0,0009.25,0002.73,0001.27
2022-04-08 04:52:00,,0834.6,5.00,0.00,25.3,24.3,00.0,34.3,27.0,06.5,0000.0,0009.62,0002.79,0001.27
2022-04-08 04:53:00,,0834.5,5.00,0.00,25.2,24.3,00.0,34.2,27.0,06.5,0000.0,0010.70,0002.84,0001.27
2022-04-08 04:54:00,,0834.6,5.00,0.00,25.2,24.3,00.0,34.2,27.0,06.5,0000.0,0011.14,0002.75,0001.25
2022-04-08 04:55:00,,0834.6,5.00,0.00,25.2,24.3,00.0,34.2,27.0,06.5,0000.0,0011.18,0002.72,0001.24
2022-04-08 04:56:00,,0834.6,4.99,0.00,25.2,24.3,00.0,34.2,26.9,06.5,0000.0,0011.11,0002.68,0001.23
2022-04-08 04:57:00,,0834.6,5.00,0.00,25.2,24.2,00.0,34.2,26.9,06.5,0000.0,0011.08,0002.58,0001.22
2022-04-08 04:58:00,,0834.6,5.00,0.00,25.2,24.2,00.0,34.2,26.9,06.5,0000.0,0010.52,0002.52,0001.22
2022-04-08 04:59:00,,0834.6,5.00,0.00,25.2,24.2,00.0,34.2,26.9,06.5,0000.0,0010.50,0002.56,0001.23
